Location: Arborea
(39.7744°N, 8.5819°E)
Time: 11:17:26
(UTC+00:00)

Cosmos 1000 Rocket - Visible Passes

Search period start: 29 May 2022 00:00
Search period end: 08 June 2022 00:00
Orbit: 953 x 992 km, 82.9° (Epoch: 28 May)

Date Brightness Start Highest point End Pass type
(mag) Time Alt. Az. Time Alt. Az. Time Alt. Az.
01 Jun 7.3 03:07:38 10° ESE 03:10:47 14° E 03:13:55 10° NE visible
04 Jun 7.4 02:37:45 10° E 02:39:26 11° ENE 02:41:06 10° ENE visible
05 Jun 7.0 02:58:57 10° SE 03:03:31 22° E 03:08:05 10° NE visible
06 Jun 6.0 03:22:03 10° SSE 03:27:47 39° E 03:33:30 10° NNE visible
